Vertical_Velocity
0 0 -0 -1 -1 -2 2 -7 -1 -3 -5 2 3 0 -3 4 -2 3 2 -0 -2 -3 -0 0 -1 -2 -1 -0 -0 -0 -1 -1 -0 -1 0 -2 -3 -3 -3 -1 -0 4 -4 -0
6 2 -1 0 2 -3 2 -4 -2 3 2 -1 1 1 -2 3 -2 -1 -1 -3 -2 -0 -1 1 1 -3 -1 -0 -0 1 -0 1 -1 -1 -2 1 2 0 -1 0 0 2 -3 -2
2 -5 2 -0 -3 -2 -5 -4 -1 3 1 -0 -3 1 -4 1 -1 -1 2 -1 -2 2 -0 -3 2 -1 -1 -1 -1 -0 -3 -2 0 1 -1 -2 -2 -0 -2 -2 1 -3 -3 -0
-7 -2 0 0 2 1 -1 -0 4 2 -2 1 -1 -2 -0 4 -1 -1 -1 -2 5 5 -5 -2 0 1 -1 0 -2 0 1 -1 -2 -3 -1 1 1 -2 -1 -1 -1 -1 1 -1
18 3 -2 2 -1 0 -1 1 0 4 2 3 -1 -2 -3 3 1 -0 -1 -1 -4 1 -3 -2 -3 1 2 -2 -1 -0 4 -1 0 -0 -1 -2 2 1 -2 -1 2 1 -1 -1
-1 -2 -5 -1 0 0 0 -1 -1 2 1 0 4 2 1 -1 -2 -0 -0 -1 -4 0 -0 -2 1 0 0 -0 1 0 -1 -3 2 -3 -2 -2 -3 -2 -1 1 2 -2 0 3
0 -4 -2 -4 -2 3 -2 -4 -2 2 -2 -3 1 2 -4 -1 1 -1 -0 -2 -3 -1 0 -1 -3 -4 -1 0 1 3 -1 8 0 -2 -3 -2 -1 2 13 3 3 7 9 6
1 -8 1 4 -1 3 2 -0 -1 0 1 1 -3 1 -4 3 -1 2 -1 -1 -3 -2 -0 -3 -3 -4 -1 2 -1 1 -3 -5 -1 11 6 6 9 3 8 13 8 6 7 -0
-4 -3 -0 -2 2 -3 -1 0 -5 0 2 -0 1 -1 0 0 -0 1 -1 1 -3 -4 -2 -2 -1 -1 1 1 -1 -2 1 -0 -4 -8 3 -1 3 15 5 -2 -1 -1 5 2
3 -3 -2 -3 -2 1 -2 -5 -1 0 1 -1 0 -1 -1 0 -3 2 -1 2 -3 -3 -1 2 -1 -2 -1 0 1 1 1 -0 -1 4 -7 -8 0 -5 9 0 1 2 4 -1
5 0 -6 -4 3 2 -1 -0 -1 -4 0 0 -3 -1 3 4 -1 -1 0 1 -3 -4 -2 0 -2 -2 -2 -3 0 -1 1 -1 -0 -4 -1 1 -1 1 10 1 5 2 0 2
4 -4 -5 5 -0 -0 -3 -2 -1 -0 -1 -1 -5 3 -1 -1 1 -0 -2 3 -2 -3 -5 -7 1 -1 -3 -2 -1 -0 -3 0 2 0 2 1 2 3 2 0 1 2 1 -2
1 -4 -6 -1 -9 -4 -1 -0 -0 -1 -0 4 -2 -0 3 -0 2 3 -5 2 1 -2 -3 -5 1 0 -2 -3 2 1 0 -2 3 1 4 0 -5 0 1 -2 1 2 2 3
3 1 -5 -5 21 9 2 2 -1 -1 -1 4 5 0 1 -2 1 0 -4 0 3 -3 -4 -6 -4 -2 2 -1 -0 0 -1 -1 -0 2 2 -2 -3 1 -1 -1 -2 0 3 -1
-4 -3 -5 -5 2 1 1 -1 2 -3 5 -1 3 4 1 -0 -2 1 1 -3 -1 1 -3 -3 -1 -3 -3 1 -1 -0 2 2 2 1 1 -0 -2 -2 0 0 1 2 -1 -1
4 -7 -0 1 -2 -2 -3 -6 -2 -3 0 4 5 6 -7 3 0 -1 2 -1 -2 1 0 -3 -1 -1 -1 -1 -0 0 0 1 1 1 1 1 2 -0 -3 -0 -0 0 0 0
-1 1 0 -2 3 10 -35 -9 3 -3 1 3 5 8 -7 2 0 1 2 -1 0 -1 1 -2 -1 -1 -1 -1 1 -1 1 1 1 -0 -2 -0 -0 -1 0 1 0 -0 -1 -1
-2 -4 -1 1 -2 -37 13 -6 4 -4 11 4 10 7 4 -1 7 -2 3 1 -1 -4 -0 -1 -2 -2 0 -1 1 -2 -2 2 -1 -0 1 0 -0 -1 0 -1 -1 -1 -1 -1
4 -8 -3 -7 -1 5 -16 -9 -4 -3 23 10 27 -11 -3 2 8 -4 4 0 1 -0 -3 -1 -3 -3 -2 -0 -1 -0 -3 -1 -0 0 -0 -1 1 0 -0 -1 -1 -1 -3 -4
3 -1 -13 -4 -6 -14 12 8 6 -9 -39 -1 6 11 16 8 1 9 5 6 1 -2 -4 -2 -1 -2 -1 -1 -2 0 -2 -2 -1 0 0 2 3 -0 -1 -2 -2 -3 -0 -0
-1 -6 -12 14 -9 -6 9 -3 1 -36 45 6 14 -1 7 11 17 11 10 4 4 1 -3 -4 -3 -1 -0 -2 -3 -0 -1 2 1 0 2 0 -1 -1 -3 -2 0 1 -2 -1
5 -1 2 5 -10 -21 2 3 5 -2 -23 0 -1 6 3 -6 1 13 6 2 2 6 -4 -2 -3 -2 -1 0 -1 1 -3 1 0 -0 -1 -2 -1 -1 0 1 -1 -1 -2 -2
-6 -14 -9 -7 7 2 -9 -8 -18 12 -7 -6 -4 -12 10 -20 -2 5 9 -3 6 2 -3 -2 -2 -1 -1 3 -1 1 -1 -1 0 -1 -1 -1 -1 -1 0 -0 -2 -1 -2 -0
-5 -2 -16 -1 3 -3 -7 0 -1 -3 -3 3 -5 11 -10 4 0 -8 7 -1 1 1 -7 -2 -2 -1 1 1 -1 -0 2 -1 -1 -0 -0 -1 -1 -0 0 -1 -1 0 -0 1
-0 8 0 -13 14 6 -6 -1 -5 -2 3 2 -2 -3 3 -8 8 4 12 6 5 3 -1 -4 0 -1 -0 0 1 0 2 -1 -3 0 -0 -1 -0 -1 -0 -1 0 0 1 2
-3 4 -9 4 6 -14 1 3 -6 -3 -1 -3 0 0 -2 4 3 10 1 1 1 1 -0 -4 1 -0 1 2 0 -1 1 -1 -2 -2 -2 -3 -1 -0 -0 -0 2 1 1 1
Height
5901 5904 5904 5903 5904 5903 5902 5899 5901 5902 5905 5904 5904 5905 5905 5904 5903 5904 5902 5903 5901 5898 5898 5900 5900 5899 5898 5897 5896 5897 5897 5898 5899 5900 5903 5904 5906 5910 5912 5917 5921 5925 5929 5933
5903 5904 5903 5904 5904 5902 5902 5900 5901 5901 5900 5899 5900 5903 5903 5903 5902 5902 5902 5902 5900 5898 5898 5899 5900 5899 5898 5897 5897 5898 5898 5899 5899 5901 5903 5905 5907 5909 5912 5915 5919 5925 5929 5933
5899 5899 5902 5902 5903 5902 5901 5901 5901 5899 5897 5899 5897 5900 5899 5900 5900 5899 5900 5900 5898 5898 5898 5898 5899 5899 5899 5898 5898 5898 5897 5899 5900 5901 5903 5904 5906 5908 5911 5913 5919 5926 5930 5933
5895 5897 5899 5900 5902 5902 5902 5902 5903 5899 5897 5896 5897 5900 5899 5901 5899 5899 5898 5900 5899 5897 5896 5898 5899 5900 5900 5900 5899 5899 5899 5899 5900 5901 5902 5904 5906 5907 5909 5912 5919 5925 5931 5933
5895 5895 5896 5898 5900 5902 5903 5902 5901 5900 5898 5895 5898 5900 5900 5900 5899 5899 5897 5899 5898 5897 5897 5899 5900 5901 5902 5901 5900 5900 5900 5899 5899 5900 5901 5903 5906 5907 5911 5915 5921 5926 5930 5932
5887 5889 5892 5894 5898 5901 5903 5901 5899 5900 5900 5898 5899 5899 5900 5899 5898 5899 5898 5897 5897 5898 5898 5901 5902 5902 5904 5903 5903 5901 5901 5900 5899 5899 5900 5901 5901 5905 5910 5916 5922 5926 5929 5932
5882 5884 5888 5892 5896 5899 5901 5900 5898 5901 5899 5897 5896 5898 5898 5897 5898 5899 5899 5898 5897 5898 5898 5901 5902 5902 5904 5905 5906 5905 5904 5903 5901 5901 5900 5901 5904 5907 5912 5917 5922 5926 5927 5928
5878 5881 5884 5890 5893 5896 5898 5898 5897 5897 5897 5896 5896 5898 5897 5898 5899 5900 5899 5898 5897 5896 5899 5901 5902 5903 5905 5907 5907 5907 5907 5905 5903 5905 5903 5904 5906 5910 5914 5917 5921 5923 5924 5927
5873 5876 5881 5888 5891 5894 5894 5896 5896 5894 5895 5895 5896 5896 5897 5898 5899 5901 5901 5901 5899 5898 5900 5903 5905 5906 5908 5909 5909 5910 5911 5910 5908 5906 5907 5906 5909 5910 5912 5915 5919 5922 5926 5929
5869 5873 5877 5883 5887 5891 5892 5893 5894 5894 5892 5892 5893 5894 5896 5898 5899 5901 5902 5903 5902 5902 5903 5905 5908 5909 5911 5911 5912 5913 5913 5913 5914 5912 5913 5912 5910 5912 5911 5918 5923 5925 5930 5930
5864 5869 5874 5878 5884 5888 5890 5891 5893 5891 5891 5889 5890 5894 5896 5899 5900 5902 5903 5904 5904 5905 5906 5908 5910 5913 5913 5914 5915 5915 5915 5916 5916 5916 5916 5916 5917 5918 5920 5923 5927 5928 5930 5932
5860 5864 5868 5877 5881 5883 5885 5888 5890 5891 5892 5891 5889 5894 5895 5897 5901 5902 5903 5906 5905 5906 5908 5910 5912 5914 5916 5917 5917 5918 5918 5918 5918 5919 5921 5923 5923 5923 5925 5928 5929 5930 5932 5934
5856 5858 5863 5869 5874 5876 5880 5885 5887 5889 5891 5893 5889 5892 5893 5895 5899 5902 5904 5906 5907 5908 5911 5911 5912 5916 5919 5918 5918 5920 5921 5920 5920 5922 5924 5926 5926 5928 5930 5931 5932 5933 5934 5935
5853 5855 5858 5863 5872 5878 5879 5883 5884 5886 5889 5891 5890 5891 5892 5894 5896 5900 5904 5905 5908 5911 5914 5913 5913 5916 5919 5920 5920 5921 5921 5921 5923 5924 5926 5927 5930 5932 5932 5933 5934 5935 5936 5936
5849 5851 5853 5858 5865 5869 5872 5877 5880 5883 5887 5890 5889 5891 5893 5893 5896 5899 5903 5905 5908 5913 5915 5915 5915 5917 5919 5922 5922 5923 5923 5922 5923 5925 5928 5931 5932 5934 5935 5935 5935 5936 5937 5938
5842 5846 5849 5853 5858 5861 5865 5870 5874 5879 5884 5886 5889 5891 5892 5895 5897 5898 5902 5905 5908 5913 5916 5916 5917 5918 5920 5922 5923 5924 5924 5924 5925 5928 5931 5932 5933 5933 5935 5936 5936 5937 5937 5937
5835 5839 5843 5848 5852 5856 5856 5863 5869 5875 5881 5884 5888 5890 5890 5893 5896 5898 5901 5904 5908 5911 5915 5915 5916 5918 5920 5922 5923 5923 5925 5926 5928 5929 5931 5932 5933 5934 5935 5936 5936 5937 5937 5937
5826 5831 5834 5839 5844 5844 5851 5860 5864 5869 5877 5879 5883 5883 5886 5890 5895 5897 5900 5903 5907 5909 5913 5915 5916 5918 5919 5921 5923 5924 5926 5928 5929 5929 5930 5932 5933 5935 5935 5935 5935 5935 5936 5936
5817 5819 5825 5830 5833 5839 5844 5852 5858 5862 5872 5876 5880 5876 5879 5887 5893 5896 5899 5902 5905 5909 5912 5913 5915 5917 5919 5921 5923 5925 5926 5928 5930 5930 5931 5932 5933 5934 5933 5932 5933 5934 5935 5936
5806 5810 5815 5819 5822 5828 5840 5847 5853 5856 5859 5872 5874 5877 5878 5885 5890 5896 5897 5900 5903 5906 5909 5911 5913 5916 5919 5920 5922 5925 5926 5928 5930 5930 5931 5931 5932 5931 5931 5932 5933 5934 5935 5935
5793 5799 5802 5810 5812 5821 5832 5838 5845 5845 5864 5866 5870 5871 5873 5877 5884 5890 5893 5896 5900 5903 5907 5908 5910 5914 5917 5919 5921 5923 5925 5927 5929 5929 5930 5931 5931 5931 5931 5932 5934 5935 5934 5933
5780 5785 5792 5799 5801 5812 5824 5830 5835 5836 5846 5853 5859 5863 5864 5866 5868 5878 5887 5891 5896 5900 5904 5905 5907 5911 5915 5917 5919 5922 5924 5926 5927 5928 5930 5930 5930 5930 5932 5933 5933 5933 5933 5933
5764 5771 5779 5787 5793 5802 5813 5819 5821 5828 5840 5846 5851 5856 5860 5861 5865 5871 5879 5885 5891 5895 5900 5901 5904 5907 5912 5914 5917 5920 5923 5924 5925 5927 5928 5929 5929 5931 5931 5932 5932 5932 5931 5931
5748 5757 5763 5773 5782 5792 5800 5809 5814 5823 5832 5838 5843 5850 5853 5858 5863 5865 5873 5879 5886 5891 5896 5897 5900 5903 5907 5911 5914 5916 5920 5921 5922 5923 5925 5927 5928 5929 5929 5929 5929 5929 5930 5929
5732 5741 5748 5758 5770 5780 5788 5797 5805 5815 5822 5828 5835 5841 5847 5848 5854 5858 5867 5874 5881 5886 5891 5893 5895 5899 5903 5907 5910 5913 5916 5917 5918 5920 5922 5924 5925 5926 5927 5927 5927 5928 5927 5925
5718 5728 5733 5743 5755 5763 5775 5785 5793 5804 5812 5818 5825 5832 5840 5844 5849 5856 5860 5869 5875 5880 5884 5887 5889 5893 5897 5902 5905 5909 5912 5913 5914 5916 5918 5920 5922 5923 5924 5925 5926 5926 5925 5922